Regional Weather Roundup
Issued by NWS New Orleans/Baton Rouge, LA

Home | Current Version | Previous Version | Graphics & Text | Print | Product List | Glossary On
Versions: 1 2 3 4 5 6 7 8 9 10 11 12 13 14 15 16 17 18 19 20 21 22 23 24 25 26 27 28 29 30 31 32 33 34 35 36 37 38 39 40 41 42 43 44 45 46 47 48 49 50
495
ASUS44 KLIX 231005
RWRLIX
NEW ORLEANS REGIONAL WEATHER ROUNDUP
NATIONAL WEATHER SERVICE NEW ORLEANS LA
500 AM CDT WED APR 23 2014

NOTE: "FAIR" INDICATES FEW OR NO CLOUDS BELOW 12,000 FEET WITH NO
      SIGNIFICANT WEATHER AND/OR OBSTRUCTIONS TO VISIBILITY.
      SKY/WX - SKY CONDITION AND SIGNIFICANT WEATHER.
      TMP - AIR TEMPERATURE.     DP    - DEWPOINT TEMPERATURE.
      RH  - RELATIVE HUMIDITY.   PRES  - PRESSURE.
      HI  - HEAT INDEX.          WCI   - WIND CHILL INDEX.

*  THESE STATIONS ARE NOT NWS OR FAA STATIONS AND ARE NOT UNDER
   NWS QUALITY CONTROL.

LAZ038-040-048-061>063-065>067-069-231100-
SOUTHEAST LOUISIANA

CITY           SKY/WX    TMP DP  RH WIND       PRES   REMARKS
N.O. AUDUBON     N/A     64  62  91 MISG        N/A
N.O. INTL ARPT CLEAR     63  61  93 CALM      29.94R
N.O. LAKEFRONT CLEAR     68  66  93 VRB3      29.94R
N.O. DOWNTOWN*   N/A     68  61  77 N5        29.94S
SLIDELL        CLEAR     58  56  93 CALM      29.93S
BATON ROUGE    CLEAR     59  56  89 CALM      29.94S
BOOTHVILLE     FOG       64  63  96 CALM      29.94R VSB 3/4
BELLE CHASSE   CLEAR     59  56  89 SW5       29.93R FOG
BOGALUSA*        N/A     58  55  90 CALM      29.95S FOG
GALLIANO*      FOG       56  56  97 CALM      29.94S VSB 3/4
NEW ROADS*     FOG       56  56  99 CALM      29.95R VSB 1/4
GONZALES*        N/A     58  58 100 CALM      29.94R FOG
HAMMOND*       CLEAR     59  57  94 CALM      29.95S
HOUMA*         FOG       60  58  94 CALM      29.94S VSB 1/4
PORT FOURCHON* SUNNY     70  68  94 W3        29.95S

$$

MSZ070-080>082-231100-
SOUTHERN MISSISSIPPI

CITY           SKY/WX    TMP DP  RH WIND       PRES   REMARKS
MCCOMB         CLEAR     62  59  90 N6        29.95S
GULFPORT       CLEAR     63  59  87 CALM      29.92S FOG
BILOXI         CLEAR     63  63 100 N1        29.92S
PASCAGOULA     FOG       60  59  96 CALM      29.92S VSB 1/4

$$

COASTAL OBSERVATIONS
LAKE AND NEARSHORE STATIONS

STATION/POSITION TIME  TEMP    WIND        PRES    WAVE
                       AIR SEA DIR/SP/G            HT/PER
                 (UTC) (F)     (DEG/KT/KT) (MB)    (FT/S)
PASCAGOULA       1000   63     340/  6/  7 1012.5
WAVELAND YACHT   1000   63 72  330/  6/  7 1012.4
GRAND ISLE       1000   70 72  310/  3/  4 1014.2
SOUTHWEST PASS   1000   67 60  300/  8/ 10 1014.0
NEW CANAL        1000   68 69   CALM  /  1 1014.0
SHELL BEACH      1000   69 67  310/  5/  5 1013.2

OFFSHORE STATIONS

STATION/POSITION TIME  TEMP    WIND        PRES    WAVE
                       AIR SEA DIR/SP/G            HT/PER
                 (UTC) (F)     (DEG/KT/KT) (MB)    (FT/S)
64 S DAUPHIN ISL 0939   68 68  280/ 10/ 10 1013.1

$$




USA.gov is the U.S. government's official web portal to all federal, state and local government web resources and services.